This demonstration page uses our WeatherBlox Daily Observations layout. Learn more.

Left ArrowRight Arrow

39.01783, -85.05884

Hourly Observations for April 26, 2019

Temp ( °F °C ) Dew Point ( °F °C ) Humidity (%) Winds ( mph kmh ) Pressure ( in mb ) Visibility ( mi km ) Precip ( " mm )
12:52 am 00:52 Cloudy 62 16.7 60 15.6 93 93 SSW 8 13 29.57 1001 9 14 N/A
1:52 am 01:52 Cloudy with Light Rain 62 16.7 59 15 90 90 SW 15 24 29.53 1000 8 13 0.01 0.25
2:25 am 02:25 Cloudy 62 16.7 59 15 90 90 W 9 15 29.52 1000 10 16 0.05 1.27
2:52 am 02:52 Cloudy 61 16.1 59 15 93 93 SSW 12 19 29.50 999 10 16 0.05 1.27
3:23 am 03:23 Cloudy with Heavy Rain 60 15.6 57 13.9 90 90 W 15 24 29.51 999 2 3 0.04 1.02
3:40 am 03:40 Cloudy with Light Rain 60 15.6 57 13.9 90 90 W 12 19 29.50 999 10 16 0.09 2.29
3:52 am 03:52 Cloudy 60 15.6 57 13.9 90 90 W 9 15 29.48 998 10 16 0.09 2.29
4:13 am 04:13 Cloudy with Heavy Rain 59 15 57 13.9 93 93 WNW 8 13 29.49 999 3 4 0.05 1.27
4:30 am 04:30 Cloudy with Light Rain 59 15 57 13.9 93 93 WNW 16 26 29.49 999 6 10 0.11 2.79
4:52 am 04:52 Cloudy with Light Rain 59 15 56 13.3 90 90 WNW 17 28 29.49 999 10 16 0.14 3.56
5:52 am 05:52 Cloudy with Light Rain 57 13.9 54 12.2 90 90 WNW 9 15 29.50 999 8 13 0.04 1.02
6:10 am 06:10 Cloudy with Light Rain 56 13.3 53 11.7 90 90 W 12 19 29.53 1000 9 14 N/A
6:52 am 06:52 Cloudy with Light Rain 55 12.8 51 10.6 87 87 WNW 14 22 29.53 1000 5 8 0.06 1.52
7:17 am 07:17 Cloudy with Mist and Fog 54 12.2 47 8.3 77 77 WNW 24 39 29.57 1001 6 10 0.01 0.25
7:52 am 07:52 Cloudy 51 10.6 44 6.7 77 77 WNW 15 24 29.58 1002 7 11 0.01 0.25
8:52 am 08:52 Cloudy with Light Rain 51 10.6 47 8.3 86 86 WNW 15 24 29.61 1003 5 8 N/A
9:52 am 09:52 Cloudy with Light Rain 50 10 46 7.8 86 86 WNW 18 30 29.64 1004 6 10 0.04 1.02
10:13 am 10:13 Cloudy with Light Rain 50 10 46 7.8 86 86 WNW 22 35 29.68 1005 4 6 0.02 0.51
10:31 am 10:31 Cloudy with Light Rain 50 10 45 7.2 83 83 WNW 20 31 29.69 1005 7 11 0.04 1.02
10:52 am 10:52 Cloudy with Light Rain 49 9.4 45 7.2 86 86 WNW 24 39 29.68 1005 6 10 0.05 1.27
11:37 am 11:37 Cloudy 52 11.1 46 7.8 80 80 WNW 15 24 29.74 1007 10 16 0.01 0.25
11:52 am 11:52 Cloudy 53 11.7 47 8.3 80 80 WNW 17 28 29.72 1006 10 16 0.01 0.25
12:16 pm 12:16 Cloudy 55 12.8 47 8.3 74 74 WNW 20 31 29.74 1007 10 16 N/A
12:52 pm 12:52 Cloudy 57 13.9 48 8.9 72 72 WNW 16 26 29.73 1007 10 16 N/A
1:52 pm 13:52 Mostly Cloudy 61 16.1 47 8.3 60 60 NW 21 33 29.74 1007 10 16 N/A
2:52 pm 14:52 Mostly Cloudy 61 16.1 46 7.8 58 58 NW 17 28 29.75 1008 10 16 N/A
3:52 pm 15:52 Mostly Cloudy 62 16.7 46 7.8 56 56 WNW 22 35 29.77 1008 10 16 N/A
4:52 pm 16:52 Mostly Cloudy 60 15.6 43 6.1 53 53 WNW 21 33 29.78 1009 10 16 N/A
5:52 pm 17:52 Mostly Cloudy 62 16.7 43 6.1 50 50 WNW 23 37 29.81 1009 10 16 N/A
6:52 pm 18:52 Partly Cloudy 61 16.1 40 4.4 46 46 NW 20 31 29.82 1010 10 16 N/A
7:52 pm 19:52 Partly Cloudy 59 15 36 2.2 42 42 W 16 26 29.84 1011 10 16 N/A
8:52 pm 20:52 Mostly Clear 55 12.8 34 1.1 45 45 W 12 19 29.86 1011 10 16 N/A
9:52 pm 21:52 Mostly Clear 52 11.1 35 1.7 53 53 W 9 15 29.89 1012 10 16 N/A
10:52 pm 22:52 Clear 51 10.6 34 1.1 52 52 W 7 11 29.90 1012 10 16 N/A
11:52 pm 23:52 Clear 51 10.6 34 1.1 52 52 W 7 11 29.90 1012 10 16 N/A

Powered by AerisWeather